Voltar ao catálogo

SL-8 R/B

AtivoLEO
NORAD 10938·ROCKET BODY·🇷🇺 Russia

Lançado Jun 7, 1978 de Plesetsk Cosmodrome

Loading…

Próximas Passagens (próximas 24 horas)

TLE

AtualizadoSource: Space-Track

Época: Sep 14, 2026, 11:24 UTC

1 10938U 78056J   26257.47522619  .00000009  00000-0  21701-3 0  9998
2 10938  74.0245 338.2389 0133169 358.3872  13.1165 12.21540953152546

Acompanhe SL-8 R/B em tempo real com AllMySat

Download on the App Store